TimeMST,TemperatureF,Dew PointF,Humidity,Sea Level PressureIn,VisibilityMPH,Wind Direction,Wind SpeedMPH,Gust SpeedMPH,PrecipitationIn,Events,Conditions,WindDirDegrees,DateUTC
12:53 AM,8.1,1.0,73,30.33,10.0,WSW,9.2,-,N/A,,Clear,240,2013-01-04 07:53:00
1:53 AM,12.9,3.0,65,30.31,10.0,WSW,9.2,-,N/A,,Clear,240,2013-01-04 08:53:00
2:53 AM,14.0,3.9,64,30.30,10.0,SW,8.1,-,N/A,,Clear,230,2013-01-04 09:53:00
3:53 AM,10.9,1.9,67,30.30,10.0,SW,5.8,-,N/A,,Clear,230,2013-01-04 10:53:00
4:53 AM,10.9,1.9,67,30.30,10.0,SW,9.2,-,N/A,,Clear,230,2013-01-04 11:53:00
5:53 AM,9.0,1.0,70,30.33,10.0,SW,9.2,-,N/A,,Clear,230,2013-01-04 12:53:00
6:53 AM,9.0,1.0,70,30.33,10.0,WSW,9.2,-,N/A,,Clear,250,2013-01-04 13:53:00
7:53 AM,12.9,3.0,65,30.33,10.0,WSW,6.9,-,N/A,,Clear,240,2013-01-04 14:53:00
8:53 AM,17.1,7.0,65,30.33,10.0,SW,4.6,-,N/A,,Clear,220,2013-01-04 15:53:00
9:53 AM,24.1,12.0,60,30.32,10.0,SW,5.8,-,N/A,,Clear,230,2013-01-04 16:53:00
10:53 AM,30.0,12.9,49,30.28,10.0,WSW,9.2,-,N/A,,Clear,250,2013-01-04 17:53:00
11:53 AM,30.9,15.1,52,30.24,10.0,West,8.1,-,N/A,,Clear,260,2013-01-04 18:53:00
12:53 PM,32.0,19.9,61,30.21,10.0,WSW,5.8,-,N/A,,Clear,240,2013-01-04 19:53:00
1:53 PM,33.1,19.9,59,30.18,10.0,SW,4.6,-,N/A,,Clear,230,2013-01-04 20:53:00
2:53 PM,33.1,21.9,64,30.17,10.0,WNW,3.5,-,N/A,,Clear,290,2013-01-04 21:53:00
3:53 PM,28.9,21.0,72,30.20,10.0,WSW,3.5,-,N/A,,Clear,240,2013-01-04 22:53:00
4:53 PM,23.0,18.0,81,30.21,10.0,SSW,10.4,-,N/A,,Clear,210,2013-01-04 23:53:00
5:53 PM,19.0,14.0,81,30.22,10.0,WSW,6.9,-,N/A,,Clear,250,2013-01-05 00:53:00
6:53 PM,16.0,12.0,84,30.24,10.0,SSW,3.5,-,N/A,,Clear,210,2013-01-05 01:53:00
7:53 PM,15.1,12.0,88,30.24,10.0,West,6.9,-,N/A,,Clear,260,2013-01-05 02:53:00
8:53 PM,12.9,9.0,84,30.24,10.0,SW,9.2,-,N/A,,Clear,230,2013-01-05 03:53:00
9:53 PM,15.1,10.0,80,30.23,10.0,WSW,9.2,-,N/A,,Clear,240,2013-01-05 04:53:00
10:53 PM,18.0,10.9,74,30.20,10.0,SW,8.1,-,N/A,,Clear,230,2013-01-05 05:53:00
11:53 PM,16.0,10.0,77,30.20,10.0,Variable,3.5,-,N/A,,Clear,0,2013-01-05 06:53:00